Location: Vinland
(47.7731°N, 122.6974°W)
Time: 15:32:06
(UTC+00:00)

Tiros 1 despin weight - All Passes

Search period start: 30 March 2023 00:00
Search period end: 09 April 2023 00:00
Orbit: 588 x 634 km, 48.2° (Epoch: 29 March)

Date Brightness Start Highest point End Pass type
(mag) Time Alt. Az. Time Alt. Az. Time Alt. Az.
30 Mar - 02:42:21 10° SSW 02:45:46 22° SE 02:49:10 10° E daylight
30 Mar - 04:22:18 10° WSW 04:26:39 67° SSE 04:31:02 10° E visible
30 Mar - 06:03:38 10° W 06:08:03 84° N 06:12:30 10° E visible
30 Mar - 07:45:03 10° W 07:49:25 62° SSW 07:53:50 10° ESE night (unlit)
30 Mar - 09:26:59 10° W 09:30:15 20° SW 09:33:33 10° S night (unlit)
31 Mar - 02:55:43 10° SW 02:59:42 35° SSE 03:03:42 10° E daylight
31 Mar - 04:36:26 10° WSW 04:40:49 85° SSE 04:45:14 10° E visible
31 Mar - 06:17:51 10° W 06:22:16 89° NNE 06:26:44 10° E visible
31 Mar - 07:59:18 10° W 08:03:30 43° SSW 08:07:43 10° SE night (unlit)
31 Mar - 09:42:28 10° WSW 09:44:04 12° SW 09:45:41 10° SSW night (unlit)
01 Apr - 01:30:27 10° S 01:33:02 15° SE 01:35:37 10° ESE daylight
01 Apr - 03:09:29 10° SW 03:13:43 52° SSE 03:18:00 10° E visible
01 Apr - 04:50:38 10° W 04:55:02 85° N 04:59:28 10° E visible
01 Apr - 06:32:04 10° W 06:36:27 76° SSW 06:40:54 10° ESE visible
01 Apr - 08:13:41 10° W 08:17:28 28° SW 08:21:17 10° SSE night (unlit)
02 Apr - 01:43:16 10° SSW 01:46:53 25° SE 01:50:29 10° E daylight
02 Apr - 03:23:28 10° WSW 03:27:49 72° SSE 03:32:13 10° E visible
02 Apr - 05:04:50 10° W 05:09:14 84° N 05:13:40 10° E visible
02 Apr - 06:46:15 10° W 06:50:34 57° SSW 06:54:56 10° SE visible
02 Apr - 08:28:24 10° W 08:31:21 18° SW 08:34:19 10° S night (unlit)
03 Apr - 01:56:44 10° SW 02:00:49 39° SSE 02:04:55 10° E daylight
03 Apr - 03:37:36 10° W 03:41:59 88° SSE 03:46:24 10° E visible
03 Apr - 05:19:02 10° W 05:23:26 87° SSW 05:27:52 10° ESE visible
03 Apr - 07:00:31 10° W 07:04:36 38° SSW 07:08:44 10° SE visible
04 Apr - 00:31:07 10° S 00:34:04 18° SE 00:37:02 10° E daylight
04 Apr - 02:10:33 10° WSW 02:14:50 58° SSE 02:19:09 10° E daylight
04 Apr - 03:51:47 10° W 03:56:11 84° N 04:00:35 10° E visible
04 Apr - 05:33:12 10° W 05:37:35 71° SSW 05:41:59 10° ESE visible
04 Apr - 07:14:56 10° W 07:18:32 25° SW 07:22:09 10° SSE visible
05 Apr - 00:44:09 10° SSW 00:47:56 29° SE 00:51:42 10° E daylight
05 Apr - 02:24:33 10° WSW 02:28:56 77° SSE 02:33:19 10° E daylight
05 Apr - 04:05:58 10° W 04:10:21 86° N 04:14:47 10° E visible
05 Apr - 05:47:23 10° W 05:51:40 51° SSW 05:55:56 10° SE visible
05 Apr - 07:29:48 10° WSW 07:32:21 15° SW 07:34:54 10° S visible
05 Apr - 23:19:39 10° SSE 23:21:18 12° SE 23:22:55 10° ESE daylight
06 Apr - 00:57:42 10° SW 01:01:52 44° SSE 01:06:02 10° E daylight
06 Apr - 02:38:41 10° W 02:43:04 89° NNW 02:47:29 10° E daylight
06 Apr - 04:20:08 10° W 04:24:31 84° SSW 04:28:56 10° ESE visible
06 Apr - 06:01:39 10° W 06:05:37 34° SSW 06:09:38 10° SE visible
06 Apr - 23:31:48 10° S 23:35:03 20° SE 23:38:17 10° E daylight
07 Apr - 01:11:33 10° WSW 01:15:53 63° SSE 01:20:13 10° E daylight
07 Apr - 02:52:51 10° W 02:57:15 84° N 03:01:39 10° E daylight
07 Apr - 04:34:17 10° W 04:38:37 66° SSW 04:42:59 10° ESE visible
07 Apr - 06:16:07 10° W 06:19:30 22° SW 06:22:54 10° SSE visible
07 Apr - 23:44:58 10° SSW 23:48:53 32° SSE 23:52:49 10° E daylight
08 Apr - 01:25:34 10° WSW 01:29:58 82° SSE 01:34:22 10° E daylight
08 Apr - 03:07:01 10° W 03:11:24 87° N 03:15:48 10° E daylight
08 Apr - 04:48:26 10° W 04:52:39 46° SSW 04:56:52 10° SE visible
08 Apr - 06:31:14 10° WSW 06:33:16 13° SW 06:35:17 10° SSW visible
08 Apr - 22:19:55 10° SSE 22:22:11 14° SE 22:24:27 10° ESE daylight
